EN

Hourly Weather Mostar

Today, 1 October, Thursday

Time Temperature Precipitation Wind Pressure Humidity
00:00 +14°C° 0 mm 1 mps 751 mmHg 80%
01:00 +14°C° 0 mm 1 mps 751 mmHg 81%
02:00 +14°C° 0 mm 1 mps 751 mmHg 81%
03:00 +13°C° 0 mm 1 mps 751 mmHg 82%
04:00 +13°C° 0 mm 1 mps 750 mmHg 83%
05:00 +14°C° 0 mm 1 mps 750 mmHg 82%
06:00 +14°C° 0 mm 1 mps 750 mmHg 81%
07:00 +15°C° 0 mm 1 mps 750 mmHg 81%
08:00 +16°C° 0 mm 1 mps 750 mmHg 75%
09:00 +19°C° 0 mm 1 mps 750 mmHg 70%
10:00 +21°C° 0 mm 1 mps 750 mmHg 65%
11:00 +21°C° 0 mm 1 mps 749 mmHg 64%
12:00 +20°C° 0 mm 2 mps 749 mmHg 64%
13:00 +21°C° 0 mm 2 mps 749 mmHg 64%
14:00 +20°C° 0.1 mm 2 mps 749 mmHg 67%
15:00 +20°C° 0.1 mm 2 mps 749 mmHg 71%
16:00 +21°C° 0.1 mm 1 mps 748 mmHg 74%
17:00 +19°C° 0 mm 1 mps 749 mmHg 79%
18:00 +18°C° 0 mm 1 mps 749 mmHg 84%
19:00 +16°C° 0 mm 1 mps 749 mmHg 89%
20:00 +16°C° 0 mm 2 mps 749 mmHg 90%
21:00 +16°C° 0 mm 2 mps 750 mmHg 90%
22:00 +15°C° 0 mm 2 mps 750 mmHg 91%
23:00 +15°C° 0 mm 2 mps 750 mmHg 89%

Tomorrow, 2 October, Friday

Time Temperature Precipitation Wind Pressure Humidity
00:00 +16°C° 0 mm 2 mps 749 mmHg 88%
01:00 +16°C° 0 mm 2 mps 749 mmHg 87%
02:00 +16°C° 0 mm 2 mps 749 mmHg 86%
03:00 +16°C° 0 mm 2 mps 749 mmHg 85%
04:00 +16°C° 0 mm 2 mps 748 mmHg 83%
05:00 +17°C° 0 mm 3 mps 748 mmHg 83%
06:00 +17°C° 0 mm 3 mps 748 mmHg 83%
07:00 +17°C° 0 mm 3 mps 748 mmHg 83%
08:00 +18°C° 0 mm 3 mps 749 mmHg 79%
09:00 +20°C° 0 mm 4 mps 749 mmHg 76%
10:00 +21°C° 0 mm 4 mps 749 mmHg 73%
11:00 +21°C° 0.1 mm 5 mps 749 mmHg 74%
12:00 +22°C° 0.1 mm 5 mps 748 mmHg 74%
13:00 +22°C° 0.1 mm 6 mps 748 mmHg 75%
14:00 +22°C° 0.1 mm 6 mps 748 mmHg 76%
15:00 +22°C° 0.1 mm 6 mps 748 mmHg 77%
16:00 +22°C° 0.1 mm 5 mps 748 mmHg 78%
17:00 +21°C° 0.1 mm 5 mps 748 mmHg 81%
18:00 +20°C° 0.1 mm 5 mps 749 mmHg 84%
19:00 +20°C° 0.1 mm 4 mps 749 mmHg 86%
20:00 +20°C° 0.2 mm 4 mps 749 mmHg 87%
21:00 +20°C° 0.2 mm 4 mps 749 mmHg 88%
22:00 +20°C° 0.2 mm 4 mps 749 mmHg 88%
23:00 +20°C° 0.2 mm 5 mps 749 mmHg 90%

Day after tomorrow, 3 October, Saturday

Time Temperature Precipitation Wind Pressure Humidity
00:00 +20°C° 0.2 mm 5 mps 749 mmHg 91%
01:00 +20°C° 0.2 mm 5 mps 749 mmHg 92%
02:00 +20°C° 0.3 mm 5 mps 749 mmHg 93%
03:00 +21°C° 0.3 mm 5 mps 749 mmHg 94%
04:00 +21°C° 0.3 mm 5 mps 748 mmHg 95%
05:00 +21°C° 0.3 mm 6 mps 748 mmHg 94%
06:00 +21°C° 0.3 mm 6 mps 748 mmHg 94%
07:00 +21°C° 0.3 mm 6 mps 748 mmHg 93%
08:00 +22°C° 0.1 mm 6 mps 748 mmHg 91%
09:00 +22°C° 0.1 mm 6 mps 748 mmHg 88%
10:00 +23°C° 0.1 mm 7 mps 748 mmHg 85%
11:00 +23°C° 0 mm 7 mps 748 mmHg 83%
12:00 +24°C° 0 mm 7 mps 747 mmHg 80%
13:00 +24°C° 0 mm 7 mps 747 mmHg 77%
14:00 +24°C° 0 mm 7 mps 747 mmHg 76%
15:00 +24°C° 0 mm 6 mps 747 mmHg 74%
16:00 +24°C° 0 mm 6 mps 747 mmHg 72%
17:00 +23°C° 0.2 mm 6 mps 747 mmHg 75%
18:00 +22°C° 0.2 mm 6 mps 747 mmHg 77%
19:00 +22°C° 0.2 mm 5 mps 747 mmHg 79%
20:00 +22°C° 0.2 mm 6 mps 747 mmHg 80%
21:00 +22°C° 0.2 mm 6 mps 747 mmHg 81%
22:00 +22°C° 0.2 mm 6 mps 747 mmHg 83%
23:00 +22°C° 1 mm 6 mps 747 mmHg 84%

4 October, Sunday

Time Temperature Precipitation Wind Pressure Humidity
00:00 +22°C° 1 mm 7 mps 747 mmHg 85%
01:00 +22°C° 1 mm 7 mps 747 mmHg 87%
02:00 +22°C° 2.8 mm 6 mps 748 mmHg 90%
03:00 +22°C° 2.8 mm 5 mps 748 mmHg 93%
04:00 +22°C° 2.8 mm 4 mps 748 mmHg 96%
05:00 +22°C° 0.7 mm 3 mps 748 mmHg 95%
06:00 +23°C° 0.7 mm 2 mps 749 mmHg 95%
07:00 +21°C° 0.7 mm 2 mps 749 mmHg 95%
08:00 +23°C° 0.1 mm 2 mps 749 mmHg 87%
09:00 +24°C° 0.1 mm 2 mps 749 mmHg 80%
10:00 +25°C° 0.1 mm 2 mps 749 mmHg 73%
11:00 +25°C° 0.2 mm 2 mps 749 mmHg 71%
12:00 +25°C° 0.2 mm 2 mps 749 mmHg 69%
13:00 +25°C° 0.2 mm 2 mps 749 mmHg 67%
14:00 +24°C° 0.2 mm 1 mps 748 mmHg 71%
15:00 +23°C° 0.2 mm 1 mps 748 mmHg 75%
16:00 +23°C° 0.2 mm 1 mps 748 mmHg 80%
17:00 +22°C° 0.1 mm 1 mps 748 mmHg 81%
18:00 +22°C° 0.1 mm 1 mps 749 mmHg 82%
19:00 +21°C° 0.1 mm 1 mps 749 mmHg 83%
20:00 +20°C° 0.2 mm 2 mps 749 mmHg 84%
21:00 +20°C° 0.2 mm 2 mps 749 mmHg 86%
22:00 +20°C° 0.2 mm 3 mps 749 mmHg 87%
23:00 +19°C° 0.1 mm 3 mps 750 mmHg 88%

5 October, Monday

Time Temperature Precipitation Wind Pressure Humidity
00:00 +19°C° 0.1 mm 2 mps 750 mmHg 88%
01:00 +18°C° 0.1 mm 2 mps 750 mmHg 89%
02:00 +18°C° 0 mm 2 mps 750 mmHg 88%
03:00 +17°C° 0 mm 2 mps 750 mmHg 88%
04:00 +17°C° 0 mm 2 mps 750 mmHg 87%
05:00 +17°C° 0 mm 2 mps 750 mmHg 86%
06:00 +18°C° 0 mm 2 mps 750 mmHg 84%
07:00 +18°C° 0 mm 2 mps 750 mmHg 83%
08:00 +20°C° 0.1 mm 2 mps 750 mmHg 78%
09:00 +23°C° 0.1 mm 2 mps 750 mmHg 73%
10:00 +24°C° 0.1 mm 2 mps 751 mmHg 68%
11:00 +25°C° 0 mm 2 mps 750 mmHg 64%
12:00 +26°C° 0 mm 2 mps 750 mmHg 59%
13:00 +26°C° 0 mm 2 mps 750 mmHg 55%
14:00 +26°C° 0.1 mm 2 mps 750 mmHg 59%
15:00 +25°C° 0.1 mm 1 mps 750 mmHg 63%
16:00 +24°C° 0.1 mm 1 mps 749 mmHg 67%
17:00 +23°C° 0.3 mm 1 mps 749 mmHg 71%
18:00 +22°C° 0.3 mm 1 mps 750 mmHg 75%
19:00 +21°C° 0.3 mm 1 mps 750 mmHg 79%
20:00 +20°C° 0.2 mm 1 mps 750 mmHg 80%
21:00 +20°C° 0.2 mm 1 mps 750 mmHg 81%
22:00 +19°C° 0.2 mm 2 mps 750 mmHg 82%
23:00 +20°C° 0.4 mm 1 mps 749 mmHg 83%

6 October, Tuesday

Time Temperature Precipitation Wind Pressure Humidity
00:00 +19°C° 0.4 mm 1 mps 749 mmHg 85%
01:00 +19°C° 0.4 mm 1 mps 749 mmHg 86%
02:00 +19°C° 0.6 mm 1 mps 749 mmHg 87%
03:00 +18°C° 0.6 mm 2 mps 749 mmHg 88%
04:00 +18°C° 0.6 mm 3 mps 748 mmHg 89%
05:00 +18°C° 2.3 mm 2 mps 749 mmHg 91%
06:00 +19°C° 2.3 mm 1 mps 749 mmHg 92%
07:00 +18°C° 2.3 mm 1 mps 749 mmHg 94%
08:00 +18°C° 0.4 mm 2 mps 749 mmHg 90%
09:00 +19°C° 0.4 mm 3 mps 750 mmHg 87%
10:00 +20°C° 0.4 mm 3 mps 751 mmHg 84%
11:00 +20°C° 1.3 mm 3 mps 750 mmHg 83%
12:00 +20°C° 1.3 mm 3 mps 750 mmHg 81%
13:00 +20°C° 1.3 mm 3 mps 750 mmHg 80%
14:00 +20°C° 0.6 mm 2 mps 750 mmHg 81%
15:00 +20°C° 0.6 mm 2 mps 750 mmHg 81%
16:00 +20°C° 0.6 mm 1 mps 750 mmHg 82%
17:00 +20°C° 0.1 mm 1 mps 751 mmHg 84%
18:00 +19°C° 0.1 mm 1 mps 751 mmHg 86%
19:00 +18°C° 0.1 mm 1 mps 751 mmHg 89%
20:00 +16°C° 0 mm 1 mps 752 mmHg 88%
21:00 +16°C° 0 mm 1 mps 752 mmHg 88%
22:00 +16°C° 0 mm 1 mps 752 mmHg 88%
23:00 +16°C° 0 mm 1 mps 752 mmHg 87%
Show more